Overview Statistics Trail Chart Weather Telemetry Raw packets
 

This is the latest recevied weather packets stored in our database for station/object N5TDX. If no packets are shown the sender has not sent any weather packets the latest 10 day(s).

<< 68 69 70 71 72 73 74 >>
Time Temp. Humidity Pressure Rain* Wind** Luminosity Snow
1788189685 32.22° C 47% 1014.4 hPa 0 mm - - -
1788189384 32.78° C 46% 1014.3 hPa 0 mm - - -
1788189079 32.78° C 47% 1014.4 hPa 0 mm - - -
1788188774 32.22° C 49% 1014.4 hPa 0 mm - - -
1788188470 32.22° C 49% 1014.6 hPa 0 mm - - -
1788188169 31.67° C 51% 1014.5 hPa 0 mm - - -
1788187866 31.11° C 53% 1014.5 hPa 0 mm - - -
1788187561 30.56° C 53% 1014.5 hPa 0 mm - - -
1788187256 30.56° C 55% 1014.4 hPa 0 mm - - -
1788186951 30.56° C 55% 1014.4 hPa 0 mm - - -
1788186647 30.56° C 56% 1014.4 hPa 0 mm - - -
1788186344 30.56° C 57% 1014.5 hPa 0 mm - - -
1788186044 29.44° C 58% 1014.3 hPa 0 mm - - -
1788185742 29.44° C 60% 1014.3 hPa 0 mm - - -
1788185438 29.44° C 60% 1014.4 hPa 0 mm - - -
1788185137 28.89° C 62% 1014.2 hPa 0 mm - - -
1788184837 28.33° C 63% 1014.4 hPa 0 mm - - -
1788184535 28.33° C 64% 1014.1 hPa 0 mm - - -
1788184231 28.33° C 65% 1014.2 hPa 0 mm - - -
1788183927 27.78° C 66% 1014.2 hPa 0 mm - - -
1788183627 27.78° C 67% 1014 hPa 0 mm - - -
1788183321 27.22° C 69% 1014 hPa 0 mm - - -
1788183016 27.22° C 69% 1014 hPa 0 mm - - -
1788182713 27.22° C 69% 1013.8 hPa 0 mm - - -
1788182427 26.67° C 70% 1013.7 hPa 0 mm - - -

* Rain latest hour (hover to see other rain measurements)
** Current wind speed in m/s (hover to see current wind gust speed)